Cloud_Cover
39 5 67 100 100 100 100 97 100 76 55 33 87 100 100 100 99 72 100 36 70 52 93 100 100 86 0 0 0 0 0 0 0 0 0 0 14 1 0 4 0 0 2 1 0 3 2 6 10
5 56 100 94 97 86 88 79 100 100 100 100 100 100 78 28 32 99 93 98 60 73 24 49 51 3 0 0 0 0 0 0 0 0 0 0 1 0 0 12 13 0 0 6 1 4 2 21 100
90 100 98 100 100 100 100 74 95 100 100 100 100 100 42 44 44 42 9 40 58 40 7 100 25 0 0 0 0 0 0 0 0 1 0 0 1 0 0 0 1 8 4 5 0 2 4 19 14
4 92 39 100 100 100 80 43 7 74 100 100 100 24 6 6 85 31 100 36 56 100 21 100 8 16 0 0 0 0 0 0 0 0 0 0 1 1 0 0 0 0 0 0 0 4 67 2 4
100 77 97 99 100 100 99 60 5 30 100 86 63 48 65 16 29 8 5 8 57 61 46 47 5 0 0 0 0 0 0 0 0 0 0 0 4 14 2 0 0 0 0 0 0 0 0 0 1
100 96 100 100 100 100 79 76 5 95 36 63 15 24 100 43 9 5 5 2 0 50 4 7 5 0 0 0 0 0 0 0 0 0 0 0 0 0 0 2 0 0 0 0 0 0 0 0 0
44 100 100 98 100 100 100 100 100 13 66 55 13 46 100 96 4 0 0 93 91 88 2 60 23 0 0 0 0 0 0 0 8 0 0 0 0 0 0 0 0 0 0 0 0 0 0 0 0
7 94 51 100 100 98 24 31 100 39 99 0 27 17 100 100 80 82 100 8 100 100 16 78 0 0 0 0 0 0 0 0 0 20 62 100 31 0 0 0 0 0 0 0 0 0 0 0 0
99 100 100 79 61 100 53 28 99 31 3 90 34 0 49 100 100 100 41 90 61 97 57 4 0 0 0 0 0 0 0 0 0 93 100 100 92 4 0 0 0 0 0 0 0 2 43 94 0
19 100 40 100 49 100 87 55 38 8 26 36 4 77 98 100 90 100 100 96 38 14 12 0 0 0 1 0 0 0 0 0 44 98 100 32 64 48 2 0 0 0 0 0 0 95 12 1 85
9 8 60 100 100 82 95 95 33 98 68 36 43 83 100 100 100 64 9 60 100 25 0 0 0 0 0 0 0 0 0 0 36 100 100 98 22 100 100 80 4 0 2 1 59 76 64 1 0
42 48 94 100 64 5 47 100 92 84 86 100 100 7 26 95 100 100 21 14 80 64 73 0 0 0 69 31 0 0 0 68 17 46 68 49 74 100 100 88 68 11 94 32 6 24 9 60 0
38 21 91 100 100 64 56 100 100 100 94 59 71 33 34 54 84 100 100 5 0 94 80 17 0 0 44 99 0 50 34 33 100 16 0 72 100 24 57 98 74 94 66 82 6 23 74 97 35
21 5 31 100 98 94 11 89 98 100 53 3 13 2 4 18 0 6 71 0 16 56 67 74 0 0 0 0 5 100 6 11 58 42 0 0 23 98 58 78 46 60 6 23 10 6 5 50 67
5 97 58 7 33 10 3 100 100 38 94 0 0 0 0 42 0 0 27 0 14 8 0 74 0 0 0 0 0 4 0 14 0 38 0 0 0 0 0 64 6 81 49 24 85 0 10 100 36
14 13 46 28 18 11 5 43 100 64 100 99 0 0 0 0 12 5 0 62 0 0 8 12 0 0 0 0 0 0 0 1 12 0 0 0 0 0 0 13 51 49 10 41 76 37 2 16 0
3 1 1 79 4 6 20 58 41 99 100 10 0 0 0 0 0 5 8 45 0 0 0 0 0 0 0 0 0 0 0 0 0 0 0 0 0 0 0 56 58 5 56 92 75 73 0 36 33
3 5 4 5 95 5 20 5 95 72 100 73 0 0 0 0 0 0 0 1 0 0 0 0 0 0 0 0 0 0 0 0 0 0 0 0 0 0 0 12 16 45 88 12 46 21 39 58 48
3 37 3 5 46 95 3 74 4 98 100 100 82 94 0 0 0 0 0 0 0 0 0 0 0 0 0 0 0 0 0 0 0 0 0 0 0 0 10 0 62 0 0 0 0 0 0 25 0
0 1 4 0 48 30 97 67 85 100 100 100 68 89 23 0 0 0 0 0 0 0 0 0 0 0 0 0 0 0 0 0 0 0 1 8 2 0 0 0 0 95 32 0 0 0 77 3 0
0 0 0 11 70 40 58 14 100 26 99 100 100 51 0 0 0 0 0 0 0 0 0 0 0 0 0 0 0 0 0 0 0 0 0 22 6 5 0 3 0 0 25 1 0 0 5 66 0
0 0 0 59 42 48 50 25 6 4 36 75 100 71 0 0 0 0 0 0 0 0 0 0 0 0 0 0 0 0 0 0 0 0 0 0 0 0 13 3 0 0 8 0 2 0 0 1 0
0 0 0 3 86 98 22 85 79 9 6 4 31 0 4 0 0 0 0 0 0 0 0 0 0 0 0 0 0 0 0 0 0 0 0 0 0 0 0 0 0 0 0 0 25 4 0 0 0
0 0 0 0 3 3 9 100 5 52 3 4 5 0 3 0 0 0 0 0 0 0 0 0 0 0 0 0 0 0 0 0 0 0 0 0 0 0 0 0 0 0 0 0 3 0 0 0 0
0 0 0 0 0 0 0 60 2 40 8 36 5 29 93 6 0 0 0 0 0 0 0 0 0 0 0 0 0 0 0 0 0 0 0 0 0 0 0 0 0 0 0 0 0 0 0 0 0
0 0 0 0 0 0 0 0 0 7 98 93 99 50 95 14 3 0 0 0 0 0 0 0 0 0 0 0 0 0 0 0 0 0 0 0 0 0 0 0 0 0 0 0 0 0 0 0 0
0 0 0 0 0 0 0 0 0 0 1 24 96 100 58 5 7 0 0 0 0 0 0 0 0 0 0 0 0 0 0 0 0 0 0 0 0 0 0 0 0 0 0 0 0 0 0 0 0
0 0 0 0 0 0 0 0 0 0 0 0 0 99 16 54 6 3 0 0 0 0 0 0 0 0 0 0 0 0 0 0 0 0 0 0 0 0 0 0 0 0 0 0 0 0 0 0 0
0 0 0 0 0 0 0 1 0 0 0 0 0 0 0 89 10 5 0 0 0 0 0 0 0 0 0 0 0 0 0 0 0 0 0 0 0 0 0 0 0 0 0 0 0 0 0 0 0
0 0 0 0 0 0 0 17 7 0 0 0 0 5 0 8 99 5 0 0 0 0 0 0 0 0 0 0 0 0 0 0 0 0 0 0 0 0 0 0 0 0 0 0 0 0 0 0 0